HAWK-2B

Last updated on Sun Jun 21 2026 00:03:43 GMT+0000 (Coordinated Universal Time)

1 47508U 21006CZ 26171.08422452 .00006034 00000+0 18106-3 0 9998 2 47508 97.2187 214.3431 0007051 176.8619 183.2670 15.34799117299946
UTC large
Height (km)
Speed (km/s)
/
Latitude / Longitude
Inclination (degrees)
Orbital Period (minutes)
Azimuth
Elevation
Range (km)
Doppler Factor

Next 0 passes for location: London (51.5072 / 0.1276)

No passes found over London.
HAWK-2B